DB0RV-13 Weather Reports


Display with metric or nautical units.
time (UTC)temp
F
wind
direction
speed
MPH
gust
MPH
rain 1hr
in
rain 24hr
in
rain mn
in
humidity
%
barometer
mb
20260905091501 62 25 4.0 0.0 0.00 0.00 0.00 89 1022.1
20260905091002 63 44 5.0 0.0 0.00 0.00 0.00 88 1022.0
20260905090501 63 59 4.0 0.0 0.00 0.00 0.00 88 1021.9
20260905090002 63 51 3.0 0.0 0.00 0.00 0.00 86 1021.9
20260905085502 63 86 1.0 0.0 0.00 0.00 0.00 86 1021.9
20260905085002 63 50 1.0 0.0 0.00 0.00 0.00 87 1021.8
20260905084501 63 55 4.0 0.0 0.00 0.00 0.00 85 1021.7
20260905084001 63 43 5.0 0.0 0.00 0.00 0.00 85 1021.7
20260905083502 63 56 4.0 0.0 0.00 0.00 0.00 85 1021.6
20260905083001 63 41 8.0 0.0 0.00 0.00 0.00 85 1021.6
20260905082502 64 53 3.0 0.0 0.00 0.00 0.00 86 1021.5
20260905082001 63 68 5.0 0.0 0.00 0.00 0.00 85 1021.5
20260905081502 64 48 7.0 0.0 0.00 0.00 0.00 85 1021.5
20260905081001 63 39 6.0 0.0 0.00 0.00 0.00 85 1021.4
20260905080502 64 42 7.0 0.0 0.00 0.00 0.00 85 1021.3
20260905080001 64 33 4.0 0.0 0.00 0.00 0.00 84 1021.2
20260905075501 64 10 6.0 0.0 0.00 0.00 0.00 85 1021.2
20260905075002 63 347 5.0 0.0 0.00 0.00 0.00 86 1021.2
20260905074501 63 25 6.0 0.0 0.00 0.00 0.00 87 1020.8
20260905074002 63 27 5.0 0.0 0.00 0.00 0.00 86 1021.0
20260905073501 63 43 4.0 0.0 0.00 0.00 0.00 85 1020.8
20260905073002 64 3 3.0 0.0 0.00 0.00 0.00 85 1020.9
20260905072501 64 336 2.0 0.0 0.00 0.00 0.00 88 1021.0
20260905072002 63 39 4.0 0.0 0.00 0.00 0.00 85 1020.8
20260905071501 63 55 2.0 0.0 0.00 0.00 0.00 85 1020.7
20260905071002 63 20 1.0 0.0 0.00 0.00 0.00 84 1020.8
20260905070501 63 36 2.0 0.0 0.00 0.00 0.00 88 1020.8
20260905070001 62 120 1.0 0.0 0.00 0.00 0.00 86 1020.6
20260905065502 64 104 4.0 0.0 0.00 0.00 0.00 83 1020.6
20260905065001 64 62 3.0 0.0 0.00 0.00 0.00 82 1020.5
20260905064502 65 337 2.0 0.0 0.00 0.00 0.00 78 1020.5
20260905064001 65 303 1.0 0.0 0.00 0.00 0.00 76 1020.5
20260905063502 65 304 2.0 0.0 0.00 0.00 0.00 76 1020.3
20260905063001 65 293 2.0 0.0 0.00 0.00 0.00 76 1020.4
20260905062502 65 310 2.0 0.0 0.00 0.00 0.00 75 1020.1
20260905062002 65 294 2.0 0.0 0.00 0.00 0.00 75 1020.1
20260905061501 65 303 3.0 0.0 0.00 0.00 0.00 74 1019.9
20260905061002 65 281 4.0 0.0 0.00 0.00 0.00 75 1019.9
20260905060501 65 297 2.0 0.0 0.00 0.00 0.00 75 1019.9
20260905060002 65 316 5.0 0.0 0.00 0.00 0.00 74 1019.9
20260905055501 65 267 2.0 0.0 0.00 0.00 0.00 73 1019.8
20260905055002 65 266 4.0 0.0 0.00 0.00 0.00 74 1019.7
20260905054501 65 238 2.0 0.0 0.00 0.00 0.00 75 1019.9
20260905054001 65 251 2.0 0.0 0.00 0.00 0.00 76 1019.8
20260905053501 65 228 3.0 0.0 0.00 0.00 0.00 74 1019.7
20260905053001 66 216 4.0 0.0 0.00 0.00 0.00 72 1019.7
20260905052502 67 257 2.0 0.0 0.00 0.00 0.00 69 1019.8
20260905052001 67 225 2.0 0.0 0.00 0.00 0.00 69 1019.8
20260905051502 66 265 2.0 0.0 0.00 0.00 0.00 70 1019.8
20260905051001 67 241 1.0 0.0 0.00 0.00 0.00 68 1019.8
20260905050502 67 235 2.0 0.0 0.00 0.00 0.00 68 1019.8
20260905050001 67 239 3.0 0.0 0.00 0.00 0.00 68 1019.7
20260905045502 67 245 1.0 0.0 0.00 0.00 0.00 68 1019.7
20260905045001 67 226 2.0 0.0 0.00 0.00 0.00 67 1019.7
20260905044502 67 264 0.0 0.0 0.00 0.00 0.00 68 1019.6
20260905044002 67 304 2.0 0.0 0.00 0.00 0.00 69 1019.6
20260905043501 67 229 2.0 0.0 0.00 0.00 0.00 68 1019.5
20260905043002 68 199 1.0 0.0 0.00 0.00 0.00 67 1019.5
20260905042501 68 214 0.0 0.0 0.00 0.00 0.00 66 1019.4
20260905042002 67 217 2.0 0.0 0.00 0.00 0.00 68 1019.4
20260905041501 67 207 2.0 0.0 0.00 0.00 0.00 68 1019.3
20260905041001 67 204 2.0 0.0 0.00 0.00 0.00 68 1019.2
20260905040502 67 211 2.0 0.0 0.00 0.00 0.00 68 1019.2
20260905040001 68 199 1.0 0.0 0.00 0.00 0.00 68 1019.1
20260905035501 68 190 1.0 0.0 0.00 0.00 0.00 67 1019.1
20260905035002 68 0 0.0 0.0 0.00 0.00 0.00 68 1018.9
20260905034501 67 0 0.0 0.0 0.00 0.00 0.00 69 1018.7
20260905034001 67 183 1.0 0.0 0.00 0.00 0.00 68 1018.7
20260905033502 67 0 0.0 0.0 0.00 0.00 0.00 69 1018.7
20260905033001 67 139 0.0 0.0 0.00 0.00 0.00 69 1018.5
20260905032501 67 102 1.0 0.0 0.00 0.00 0.00 68 1018.5
20260905032002 66 0 0.0 0.0 0.00 0.00 0.00 71 1018.5
20260905031502 65 197 1.0 0.0 0.00 0.00 0.00 75 1018.3
20260905031001 64 149 1.0 0.0 0.00 0.00 0.00 77 1018.3
20260905030502 64 149 2.0 0.0 0.00 0.00 0.00 77 1018.2
20260905030002 65 129 2.0 0.0 0.00 0.00 0.00 75 1018.2
20260905025501 66 153 2.0 0.0 0.00 0.00 0.00 73 1018.1
20260905025002 67 62 3.0 0.0 0.00 0.00 0.00 70 1018.0
20260905024502 66 56 3.0 0.0 0.00 0.00 0.00 72 1017.9
20260905024002 66 20 2.0 0.0 0.00 0.00 0.00 71 1018.0
20260905023502 67 336 2.0 0.0 0.00 0.00 0.00 69 1017.7
20260905023002 66 0 0.0 0.0 0.00 0.00 0.00 73 1017.6
20260905022501 66 353 1.0 0.0 0.00 0.00 0.00 73 1017.6
20260905022002 66 238 2.0 0.0 0.00 0.00 0.00 72 1017.5
20260905021502 66 215 2.0 0.0 0.00 0.00 0.00 71 1017.4
20260905021002 67 225 2.0 0.0 0.00 0.00 0.00 69 1017.5
20260905020502 67 202 2.0 0.0 0.00 0.00 0.00 68 1017.5
20260905020002 66 216 1.0 0.0 0.00 0.00 0.00 70 1017.5
20260905015501 67 214 3.0 0.0 0.00 0.00 0.00 68 1017.5
20260905015002 67 206 3.0 0.0 0.00 0.00 0.00 69 1017.3
20260905014502 68 175 2.0 0.0 0.00 0.00 0.00 68 1017.3
20260905014001 67 147 1.0 0.0 0.00 0.00 0.00 69 1017.3
20260905013502 68 79 2.0 0.0 0.00 0.00 0.00 66 1017.1
20260905013002 67 0 0.0 0.0 0.00 0.00 0.00 69 1017.1
20260905012501 66 209 2.0 0.0 0.00 0.00 0.00 70 1017.1
20260905012002 67 182 2.0 0.0 0.00 0.00 0.00 69 1017.1
20260905011502 69 186 3.0 0.0 0.00 0.00 0.00 63 1017.2
20260905011001 70 202 2.0 0.0 0.00 0.00 0.00 62 1017.2
20260905010502 70 256 1.0 0.0 0.00 0.00 0.00 61 1017.1
20260905010001 70 285 3.0 0.0 0.00 0.00 0.00 61 1017.2
20260905005501 70 237 2.0 0.0 0.00 0.00 0.00 61 1017.1
20260905005002 70 244 3.0 0.0 0.00 0.00 0.00 61 1017.1
20260905004502 70 259 3.0 0.0 0.00 0.00 0.00 61 1017.1
20260905004001 70 252 3.0 0.0 0.00 0.00 0.00 61 1017.3
20260905003502 70 249 2.0 0.0 0.00 0.00 0.00 61 1017.2
20260905003002 71 294 4.0 0.0 0.00 0.00 0.00 59 1017.2
20260905002501 71 242 2.0 0.0 0.00 0.00 0.00 59 1016.9
20260905002002 72 255 4.0 0.0 0.00 0.00 0.00 58 1016.9
20260905001502 72 218 2.0 0.0 0.00 0.00 0.00 58 1016.9
20260905001001 71 250 3.0 0.0 0.00 0.00 0.00 58 1017.0
20260905000502 72 269 1.0 0.0 0.00 0.00 0.00 58 1017.1
20260905000002 71 244 7.0 0.0 0.00 0.00 0.00 59 1017.1
20260904235501 71 277 5.0 0.0 0.00 0.00 0.00 60 1017.0
20260904235002 72 272 7.0 0.0 0.00 0.00 0.00 58 1017.0
20260904234502 72 273 5.0 0.0 0.00 0.00 0.00 58 1016.9
20260904234001 71 239 2.0 0.0 0.00 0.00 0.00 61 1016.9
20260904233502 69 247 5.0 0.0 0.00 0.00 0.00 65 1016.8
20260904233002 69 245 4.0 0.0 0.00 0.00 0.00 66 1016.8
20260904232501 68 251 4.0 0.0 0.00 0.00 0.00 68 1016.9
20260904232002 68 242 4.0 0.0 0.00 0.00 0.00 72 1017.0
20260904231502 68 256 3.0 0.0 0.00 0.00 0.00 72 1016.9
20260904231001 68 240 2.0 0.0 0.00 0.00 0.00 69 1017.0
20260904230502 68 245 2.0 0.0 0.00 0.00 0.00 69 1016.9
20260904230002 68 259 4.0 0.0 0.00 0.00 0.00 70 1016.8
20260904225501 68 257 3.0 0.0 0.00 0.00 0.00 69 1016.8
20260904225002 68 244 5.0 0.0 0.00 0.00 0.00 70 1016.8
20260904224502 68 242 4.0 0.0 0.00 0.00 0.00 68 1016.8
20260904224001 68 243 4.0 0.0 0.00 0.00 0.00 68 1016.8
20260904223502 68 254 2.0 0.0 0.00 0.00 0.00 68 1016.8
20260904223002 69 247 3.0 0.0 0.00 0.00 0.00 66 1016.8
20260904222501 70 243 2.0 0.0 0.00 0.00 0.00 64 1016.9
20260904222002 70 248 4.0 0.0 0.00 0.00 0.00 63 1016.9
20260904221502 70 249 4.0 0.0 0.00 0.00 0.00 63 1016.9
20260904221001 69 250 3.0 0.0 0.00 0.00 0.00 65 1016.9
20260904220502 70 251 4.0 0.0 0.00 0.00 0.00 64 1016.9
20260904220002 70 255 4.0 0.0 0.00 0.00 0.00 62 1016.9
20260904215501 70 243 3.0 0.0 0.00 0.00 0.00 62 1016.7
20260904215002 71 241 3.0 0.0 0.00 0.00 0.00 61 1016.8
20260904214502 71 247 4.0 0.0 0.00 0.00 0.00 62 1016.7
20260904214001 71 245 4.0 0.0 0.00 0.00 0.00 62 1016.7
20260904213502 71 246 3.0 0.0 0.00 0.00 0.00 61 1016.8
20260904213002 71 244 5.0 0.0 0.00 0.00 0.00 62 1016.6
20260904212501 71 243 4.0 0.0 0.00 0.00 0.00 62 1016.7
20260904212002 71 231 6.0 0.0 0.00 0.00 0.00 62 1016.7
20260904211502 71 240 5.0 0.0 0.00 0.00 0.00 61 1016.6
20260904211001 72 240 6.0 0.0 0.00 0.00 0.00 60 1016.6
20260904210502 72 245 3.0 0.0 0.00 0.00 0.00 58 1016.6
20260904210002 72 245 4.0 0.0 0.00 0.00 0.00 59 1016.6
20260904205501 72 244 3.0 0.0 0.00 0.00 0.00 58 1016.7
20260904205002 72 245 5.0 0.0 0.00 0.00 0.00 58 1016.6
20260904204502 72 240 4.0 0.0 0.00 0.00 0.00 59 1016.6
20260904204001 72 251 2.0 0.0 0.00 0.00 0.00 58 1016.6
20260904203502 73 240 3.0 0.0 0.00 0.00 0.00 56 1016.6
20260904203002 73 245 3.0 0.0 0.00 0.00 0.00 55 1016.5
20260904202501 73 240 2.0 0.0 0.00 0.00 0.00 55 1016.6
20260904202001 75 0 0.0 0.0 0.00 0.00 0.00 53 1016.6
20260904201502 74 282 4.0 0.0 0.00 0.00 0.00 54 1016.4
20260904201001 74 253 2.0 0.0 0.00 0.00 0.00 55 1016.5
20260904200502 74 243 2.0 0.0 0.00 0.00 0.00 54 1016.5
20260904200002 74 264 4.0 0.0 0.00 0.00 0.00 54 1016.4
20260904195501 75 240 2.0 0.0 0.00 0.00 0.00 53 1016.4
20260904195002 75 265 5.0 0.0 0.00 0.00 0.00 52 1016.5
20260904194502 75 241 2.0 0.0 0.00 0.00 0.00 52 1016.4
20260904194001 75 247 1.0 0.0 0.00 0.00 0.00 53 1016.3
20260904193502 76 283 2.0 0.0 0.00 0.00 0.00 52 1016.4
20260904193002 76 249 1.0 0.0 0.00 0.00 0.00 51 1016.2
20260904192501 77 243 3.0 0.0 0.00 0.00 0.00 50 1016.2
20260904192002 77 265 1.0 0.0 0.00 0.00 0.00 50 1016.1
20260904191502 77 263 4.0 0.0 0.00 0.00 0.00 49 1016.0
20260904191001 77 270 3.0 0.0 0.00 0.00 0.00 49 1016.0
20260904190502 77 249 3.0 0.0 0.00 0.00 0.00 49 1015.9
20260904190002 77 245 3.0 0.0 0.00 0.00 0.00 51 1015.8
20260904185501 76 241 5.0 0.0 0.00 0.00 0.00 52 1015.8
20260904185002 75 251 6.0 0.0 0.00 0.00 0.00 55 1015.8
20260904184502 74 264 3.0 0.0 0.00 0.00 0.00 58 1015.7
20260904184001 74 241 5.0 0.0 0.00 0.00 0.00 57 1015.7
20260904183501 75 245 5.0 0.0 0.00 0.00 0.00 55 1015.6
20260904183002 76 241 3.0 0.0 0.00 0.00 0.00 53 1015.6
20260904182501 76 243 5.0 0.0 0.00 0.00 0.00 53 1015.5
20260904182002 76 243 3.0 0.0 0.00 0.00 0.00 53 1015.5
20260904181501 76 251 3.0 0.0 0.00 0.00 0.00 52 1015.4
20260904181002 76 244 2.0 0.0 0.00 0.00 0.00 52 1015.3
20260904180501 77 241 3.0 0.0 0.00 0.00 0.00 52 1015.3
20260904180001 77 244 2.0 0.0 0.00 0.00 0.00 51 1015.2
20260904175502 77 245 3.0 0.0 0.00 0.00 0.00 50 1015.2
20260904175001 78 242 4.0 0.0 0.00 0.00 0.00 49 1015.1
20260904174502 78 243 4.0 0.0 0.00 0.00 0.00 49 1015.0
20260904174001 79 243 3.0 0.0 0.00 0.00 0.00 48 1014.9
20260904173502 79 245 3.0 0.0 0.00 0.00 0.00 48 1015.0
20260904173001 80 247 3.0 0.0 0.00 0.00 0.00 46 1015.0
20260904172502 80 245 4.0 0.0 0.00 0.00 0.00 46 1015.0
20260904172001 81 249 2.0 0.0 0.00 0.00 0.00 43 1015.0
20260904171502 81 248 5.0 0.0 0.00 0.00 0.00 42 1014.9
20260904171002 81 252 3.0 0.0 0.00 0.00 0.00 42 1014.9
20260904170501 82 258 6.0 0.0 0.00 0.00 0.00 42 1014.9
20260904170004 82 248 8.0 0.0 0.00 0.00 0.00 41 1014.8
20260904165501 82 206 3.0 0.0 0.00 0.00 0.00 40 1014.9
20260904165002 82 254 4.0 0.0 0.00 0.00 0.00 39 1015.0
20260904164501 82 243 8.0 0.0 0.00 0.00 0.00 40 1014.9
20260904164002 83 256 6.0 0.0 0.00 0.00 0.00 39 1015.0
20260904163501 83 237 4.0 0.0 0.00 0.00 0.00 40 1014.9
20260904163002 83 263 4.0 0.0 0.00 0.00 0.00 39 1015.1
20260904162502 83 238 7.0 0.0 0.00 0.00 0.00 39 1015.1
20260904162002 83 250 4.0 0.0 0.00 0.00 0.00 39 1015.0
20260904161502 83 242 6.0 0.0 0.00 0.00 0.00 39 1015.0
20260904161002 83 269 8.0 0.0 0.00 0.00 0.00 39 1015.1
20260904160502 83 262 6.0 0.0 0.00 0.00 0.00 40 1015.2
20260904160001 83 244 10.0 0.0 0.00 0.00 0.00 40 1015.2
20260904155502 83 240 7.0 0.0 0.00 0.00 0.00 39 1015.2
20260904155001 83 248 4.0 0.0 0.00 0.00 0.00 39 1015.3
20260904154502 83 243 7.0 0.0 0.00 0.00 0.00 39 1015.3
20260904154002 83 257 6.0 0.0 0.00 0.00 0.00 39 1015.3
20260904153501 83 240 6.0 0.0 0.00 0.00 0.00 40 1015.5
20260904153002 83 253 5.0 0.0 0.00 0.00 0.00 36 1015.5
20260904152501 83 275 14.0 0.0 0.00 0.00 0.00 37 1015.5
20260904152002 83 308 6.0 0.0 0.00 0.00 0.00 37 1015.6
20260904151501 84 226 6.0 0.0 0.00 0.00 0.00 37 1015.7
20260904151002 84 239 2.0 0.0 0.00 0.00 0.00 39 1015.6
20260904150501 83 239 11.0 0.0 0.00 0.00 0.00 37 1015.7
20260904150003 83 284 7.0 0.0 0.00 0.00 0.00 37 1015.8
20260904145502 83 287 8.0 0.0 0.00 0.00 0.00 37 1015.8
20260904145002 83 241 5.0 0.0 0.00 0.00 0.00 37 1015.8
20260904144502 83 251 4.0 0.0 0.00 0.00 0.00 37 1015.8
20260904144001 83 260 11.0 0.0 0.00 0.00 0.00 38 1016.0
20260904143502 83 300 3.0 0.0 0.00 0.00 0.00 37 1016.0
20260904143001 82 285 7.0 0.0 0.00 0.00 0.00 37 1016.0
20260904142503 83 242 7.0 0.0 0.00 0.00 0.00 37 1016.0
20260904142001 82 266 8.0 0.0 0.00 0.00 0.00 38 1016.1
20260904141501 82 303 13.0 0.0 0.00 0.00 0.00 38 1016.1
20260904141002 82 283 9.0 0.0 0.00 0.00 0.00 38 1016.2
20260904140502 82 312 7.0 0.0 0.00 0.00 0.00 39 1016.3
20260904140002 83 272 5.0 0.0 0.00 0.00 0.00 39 1016.3
20260904135501 82 257 6.0 0.0 0.00 0.00 0.00 40 1016.4
20260904135002 82 268 7.0 0.0 0.00 0.00 0.00 39 1016.4
20260904134502 82 255 5.0 0.0 0.00 0.00 0.00 40 1016.4
20260904134002 82 278 8.0 0.0 0.00 0.00 0.00 40 1016.5
20260904133501 82 262 6.0 0.0 0.00 0.00 0.00 41 1016.5
20260904133002 81 297 4.0 0.0 0.00 0.00 0.00 40 1016.5
20260904132501 81 280 11.0 0.0 0.00 0.00 0.00 40 1016.6
20260904132002 81 249 4.0 0.0 0.00 0.00 0.00 42 1016.6
20260904131503 81 240 6.0 0.0 0.00 0.00 0.00 42 1016.8
20260904131001 80 253 9.0 0.0 0.00 0.00 0.00 40 1016.7
20260904130502 80 286 15.0 0.0 0.00 0.00 0.00 40 1016.7
20260904130001 80 288 13.0 0.0 0.00 0.00 0.00 42 1016.8
20260904125503 80 252 8.0 0.0 0.00 0.00 0.00 43 1016.8
20260904125002 80 238 9.0 0.0 0.00 0.00 0.00 43 1016.9
20260904124502 80 298 8.0 0.0 0.00 0.00 0.00 41 1017.0
20260904124001 80 267 7.0 0.0 0.00 0.00 0.00 45 1017.1
20260904123502 80 262 5.0 0.0 0.00 0.00 0.00 42 1017.1
20260904123003 80 241 9.0 0.0 0.00 0.00 0.00 43 1017.1
20260904122501 80 265 4.0 0.0 0.00 0.00 0.00 45 1017.2
20260904122003 79 226 5.0 0.0 0.00 0.00 0.00 44 1017.2
20260904121501 80 238 12.0 0.0 0.00 0.00 0.00 44 1017.3
20260904121002 80 238 6.0 0.0 0.00 0.00 0.00 46 1017.4
20260904120501 80 244 10.0 0.0 0.00 0.00 0.00 44 1017.4
20260904120002 79 178 0.0 0.0 0.00 0.00 0.00 44 1017.5
20260904115501 79 241 6.0 0.0 0.00 0.00 0.00 45 1017.5
20260904115002 79 245 6.0 0.0 0.00 0.00 0.00 45 1017.6
20260904114502 78 253 4.0 0.0 0.00 0.00 0.00 45 1017.7
20260904114001 78 228 3.0 0.0 0.00 0.00 0.00 45 1017.8
20260904113502 79 249 7.0 0.0 0.00 0.00 0.00 46 1017.7
20260904113001 78 247 7.0 0.0 0.00 0.00 0.00 46 1017.8
20260904112502 77 238 7.0 0.0 0.00 0.00 0.00 47 1017.9
20260904112001 77 240 6.0 0.0 0.00 0.00 0.00 46 1018.0
20260904111502 78 250 9.0 0.0 0.00 0.00 0.00 46 1018.1
20260904111001 77 236 7.0 0.0 0.00 0.00 0.00 46 1018.1
20260904110503 77 258 5.0 0.0 0.00 0.00 0.00 46 1018.3
20260904110001 77 255 9.0 0.0 0.00 0.00 0.00 45 1018.3
20260904105501 77 289 8.0 0.0 0.00 0.00 0.00 48 1018.3
20260904105002 76 231 9.0 0.0 0.00 0.00 0.00 47 1018.5
20260904104501 76 225 7.0 0.0 0.00 0.00 0.00 47 1018.6
20260904104002 75 208 7.0 0.0 0.00 0.00 0.00 49 1018.8
20260904103501 76 224 9.0 0.0 0.00 0.00 0.00 50 1018.6
20260904103002 75 263 4.0 0.0 0.00 0.00 0.00 50 1018.9
20260904102502 76 212 7.0 0.0 0.00 0.00 0.00 50 1018.7
20260904102002 75 259 4.0 0.0 0.00 0.00 0.00 50 1018.9
20260904101501 75 268 4.0 0.0 0.00 0.00 0.00 52 1018.9
20260904101001 74 207 8.0 0.0 0.00 0.00 0.00 51 1018.9
20260904100501 74 226 5.0 0.0 0.00 0.00 0.00 52 1019.0
20260904100002 74 223 4.0 0.0 0.00 0.00 0.00 52 1019.2
20260904095502 74 247 7.0 0.0 0.00 0.00 0.00 54 1019.2
20260904095001 73 213 6.0 0.0 0.00 0.00 0.00 53 1019.3
20260904094502 73 207 4.0 0.0 0.00 0.00 0.00 53 1019.4
20260904094001 73 197 3.0 0.0 0.00 0.00 0.00 54 1019.4
20260904093502 73 218 9.0 0.0 0.00 0.00 0.00 55 1019.5
20260904093001 73 261 5.0 0.0 0.00 0.00 0.00 55 1019.6
20260904092501 72 284 2.0 0.0 0.00 0.00 0.00 56 1019.6
20260904092001 72 239 7.0 0.0 0.00 0.00 0.00 56 1019.6